www.pogodaiklimat.ru

Погода и климат >> Архив погоды >> Австралия >> Квинсленд >> Блэколл


ПОГОДА в Блэколле

  • Прогноз погоды в Блэколле
  • Монитор погоды в Блэколле

АРХИВ ПОГОДЫ в Блэколле

Время (UTC), дата Ветер
(напр.,м/с)
 
Видим.   Явления Облачность Т
(С)
Тd
(С)
f
(%)
Тe
(С)
Тes
(С)
Комфортность P
(гПа)
Po
(гПа)
Тmin
(С)
Tmax
(С)
R
(мм)
R24
(мм)
S
(см)
02 12.02 З 4 н/о н/о +36.1 -0.3 10 +32 +32 жарко 1005.6 974.3 +19.2
05 12.02 ЮЗ 6 н/о н/о +38.2 -3.6 7 +34 +34 очень
жарко
1002.8 971.6
08 12.02 З 4 н/о н/о +37.7 -3.9 7 +34 +34 очень
жарко
1002.0 970.9
11 12.02 З 3 н/о н/о +30.4 -1.1 13 +27 +27 жарко 1004.2 973.0
14 12.02 З 1 н/о н/о +23.9 +4.3 28 +24 +24 комфорт 1004.3 973.1 +39.1
17 12.02 С 2 н/о н/о +21.0 +5.0 35 +23 +23 комфорт 1003.4 972.2
20 12.02 штиль 0 н/о н/о +19.6 +2.9 33 +20 +20 1005.1 973.9
23 12.02 ЮЗ 2 н/о н/о +30.7 +3.7 18 +28 +28 жарко 1007.3 976.0
02 13.02 З 6 н/о н/о +38.5 0.0 9 +35 +35 очень
жарко
1006.0 974.7 +19.4
05 13.02 ЮЗ 7 н/о н/о +40.4 +1.4 9 +37 +37 очень
жарко
1003.9 972.7
08 13.02 З 7 н/о н/о +37.3 +3.1 12 +34 +34 очень
жарко
1004.2 973.0
11 13.02 Ю 5 н/о н/о +32.9 +5.5 18 +31 +31 жарко 1007.0 975.7
14 13.02 Ю 4 н/о н/о +28.7 +3.5 20 +27 +27 жарко 1007.6 976.3 +41.1
17 13.02 Ю 4 н/о н/о +24.5 +2.6 24 +24 +24 комфорт 1007.1 975.8
20 13.02 Ю 4 н/о н/о +22.2 +1.3 25 +22 +22 комфорт 1009.1 977.7
23 13.02 ЮВ 7 н/о н/о +27.2 -1.7 15 +25 +25 комфорт 1010.6 979.2
02 14.02 Ю 4 н/о н/о +33.2 -1.2 11 +30 +30 жарко 1009.8 978.4 +22.2
05 14.02 ЮЗ 4 н/о н/о +36.3 -5.0 7 +32 +32 жарко 1007.5 976.2
08 14.02 Ю 4 н/о н/о +35.8 -5.3 7 +32 +32 жарко 1007.7 976.4
11 14.02 Ю 3 н/о н/о +29.5 -4.0 11 +26 +26 жарко 1010.1 978.7
14 14.02 Ю 4 н/о н/о +26.1 -2.5 15 +24 +24 комфорт 1010.8 979.4 +37.7
17 14.02 ЮВ 4 н/о н/о +24.0 -4.2 15 +22 +22 комфорт 1009.9 978.5
20 14.02 ЮВ 4 н/о н/о +24.6 -2.9 16 +23 +23 комфорт 1010.8 979.4
23 14.02 СВ 8 н/о н/о +30.5 +18.2 48 +35 +35 очень
душно
1012.3 980.8
02 15.02 СВ 5 н/о н/о +35.6 +16.4 32 +38 +38 очень
душно
1011.4 980.0 +23.2
05 15.02 С 5 н/о н/о +37.7 +12.3 22 +37 +37 очень
жарко
1008.9 977.5
08 15.02 СЗ 2 н/о н/о +38.4 +10.7 19 +37 +37 очень
жарко
1007.8 976.5
11 15.02 С 6 н/о в посл. час дождь {туман} н/о +26.1 +19.2 66 +31 +31 очень
душно
1012.0 980.5
14 15.02 СВ 3 н/о {туман} н/о +25.9 +19.8 69 +32 +32 очень
душно
1011.5 980.1 +39.5
17 15.02 СВ 4 н/о {туман} н/о +25.5 +18.9 67 +30 +30 душно 1010.5 979.1
20 15.02 С 3 н/о н/о +24.9 +19.5 72 +30 +30 душно 1011.6 980.2
23 15.02 С 4 н/о н/о +27.8 +19.6 61 +34 +34 очень
душно
1014.0 982.5
02 16.02 СВ 6 н/о {туман} н/о +32.2 +19.1 46 +38 +38 очень
душно
1012.4 980.9 +24.4
05 16.02 СЗ 4 н/о {туман} н/о +34.5 +16.4 34 +37 +37 очень
душно
1008.8 977.4
08 16.02 З 4 н/о н/о +28.1 +17.9 54 +33 +33 очень
душно
1009.8 978.4
11 16.02 Ю 1 н/о {туман} н/о +25.1 +22.4 85 +33 +33 очень
душно
1011.9 980.4
14 16.02 штиль 0 н/о {туман} н/о +25.2 +21.9 82 +32 +32 очень
душно
1011.0 979.6 +36.3
17 16.02 В 3 н/о {туман} н/о +24.4 +22.1 87 +32 +32 очень
душно
1009.1 977.7
20 16.02 В 3 н/о н/о +24.2 +20.3 79 +30 +30 очень
душно
1009.6 978.2
23 16.02 СВ 6 н/о н/о +28.3 +20.1 61 +35 +35 очень
душно
1011.8 980.3
02 17.02 С 4 н/о н/о +32.2 +19.8 48 +38 +38 очень
душно
1010.7 979.3 +24.1
05 17.02 З 2 н/о н/о +35.9 +17.6 34 +39 +39 очень
душно
1006.9 975.6
08 17.02 ЮЗ 4 н/о н/о +32.4 +18.2 43 +37 +37 очень
душно
1006.6 975.3
11 17.02 ЮВ 4 н/о н/о +29.8 +17.3 47 +34 +34 очень
душно
1007.7 976.4
14 17.02 З 2 н/о н/о +27.0 +18.8 61 +32 +32 очень
душно
1007.4 976.1 +36.4
17 17.02 В 3 н/о н/о +24.7 +18.9 70 +30 +30 очень
душно
1006.6 975.3
20 17.02 штиль 0 н/о н/о +24.1 +19.0 73 +29 +29 душно 1007.7 976.4
23 17.02 С 3 н/о н/о +30.7 +17.0 44 +34 +34 очень
душно
1009.8 978.4
02 18.02 СЗ 4 н/о н/о +35.4 +15.7 31 +37 +37 очень
душно
1007.7 976.4 +23.6
05 18.02 Ю 4 н/о н/о +38.1 +11.2 20 +37 +37 очень
жарко
1004.2 973.0
08 18.02 ЮЗ 4 н/о н/о +37.2 +9.7 19 +36 +36 очень
жарко
1004.3 973.1
11 18.02 С 2 н/о н/о +31.0 +14.6 37 +33 +33 душно 1005.7 974.4
14 18.02 С 3 н/о н/о +29.0 +15.5 44 +32 +32 душно 1006.1 974.8 +39.9
17 18.02 С 2 н/о н/о +24.5 +17.0 63 +28 +28 душно 1004.5 973.3
20 18.02 СВ 3 н/о н/о +23.8 +16.1 62 +27 +27 жарко 1006.0 974.7
23 18.02 С 4 н/о н/о +32.0 +14.6 35 +34 +34 душно 1007.4 976.1
02 19.02 З 3 н/о н/о +40.4 +1.4 9 +37 +37 очень
жарко
1005.6 974.3 +23.4

 

Местоположение метеостанции Блэколл (Квинсленд, Австралия): широта -24.42 долгота 145.43 высота над уровнем моря 282 м.

В архиве по умолчанию представлена погода в Блэколле за последнюю неделю. Архивные данные за месяц целиком и за предыдущие месяцы, начиная с января 2011 года, Вы можете получить, выбрав интересующий диапазон дат из раскрывающегося списка и нажав кнопку "Ввод!".


*Определитесь, кто Вы:
робот инопланетянин человек

Внимание! Время в таблицах - всемирное. Для получения местного времени необходимо прибавить поправку, которая равна 10 ч.

Смотрите также архив погоды в соседних городах и на ближайших метеорологических станциях:

Погода в Лонгриче (Квинсленд, Австралия) (161 км)
Погода в Лочингтоне (Квинсленд, Австралия) (219 км)
Погода в Чарвилле (Квинсленд, Австралия) (237 км)
Погода в Клермоне (Квинсленд, Австралия) (289 км)
Погода в Эмералде (Квинсленд, Австралия) (295 км)
Погода в Роллстоне (Квинсленд, Австралия) (324 км)
Погода в Уинтоне (Квинсленд, Австралия) (331 км)
Погода в Роме (Квинсленд, Австралия) (411 км)
Погода в Хьюэндене (Квинсленд, Австралия) (419 км)
Погода в Таргоминде (Квинсленд, Австралия) (428 км)

Пояснения к столбцам:

Ветер - указаны скорость ветра в м/с - средняя за 10 мин, порывы в срок и между сроками (в фигурных скобках) и направление, откуда дует ветер: С - северный, СВ - северо-восточный, В - восточный, ЮВ - юго-восточный, Ю - южный, ЮЗ - юго-западный, З - западный, СЗ - северо-западный.
Видимость - горизонтальная дальность видимости в метрах или километрах. При видимости от 1 до 10 км при отсутствии осадков обычно наблюдается дымка, при ухудшении видимости до 1 км и менее - туман. В сухую погоду видимость может ухудшаться дымом, пылью или мглою.
Явления - указаны атмосферные явления, наблюдавшиеся в срок или в последний час перед сроком; фигурными скобками обозначены явления, наблюдавшиеся между сроками (за 1-3 часа до срока); квадратными скобками обозначены град или гололедные отложения с указанием их диаметра в мм.
Облачность - указаны через наклонную черту общая и нижняя облачность в баллах и высота нижней границы облаков в метрах; квадратными скобками обозначены формы облаков: Ci - перистые, Cs - перисто-слоистые, Cc - перисто-кучевые, Ac - высококучевые, As - высокослоистые, Sc - слоисто-кучевые, Ns - слоисто-дождевые, Cu - кучевые, Cb - кучево-дождевые. Подробнее классификацию облаков см. в Атласе облаков (PDF).
T - Температура воздуха - температура, измеренная на высоте 2 м над землей.
Td - Температура точки росы - температура, при понижении до которой содержащийся в воздухе водяной пар достигнет насыщения.
f - Относительная влажность воздуха - влажноcть воздуха, измеренная на высоте 2 м над землей.
Te - Эффективная температура - температура, которую ощущает одетый по сезону человек в тени. Характеристика душности погоды. При расчете учитывается влияние влажности воздуха и скорости ветра на теплоощущения человека.
Tes - Эффективная температура на солнце - температура, которую ощущает человек, с поправкой на солнечный нагрев. Характеристика знойности погоды. Зависит от высоты солнца над горизонтом, облачности и скорости ветра. Ночью, в пасмурную погоду, а также при ветре 12 м/с и более поправка равна нулю.
P - Атмосферное давление - приведенное к уровню моря атмосферное давление.
Po - Атмосферное давление - измеренное на уровне метеостанции атмосферное давление.
Tmin - Минимальная температура - минимум температуры воздуха на высоте 2 м над землей.
Tmax - Максимальная температура - максимум температуры воздуха на высоте 2 м над землей.
R - Количество осадков - Количество выпавших осадков за период времени, мм. При наведении курсора мыши на число - период времени, за который выпало указанное количество осадков.
R24 - Количество осадков - Количество выпавших осадков за 24 часа, мм.
S - Снежный покров - Высота снежного покрова, см. При наведении курсора мыши на число - состояние снежного покрова и степень покрытия местности в баллах.